#timestamp,LO_Frequency,Hit,StdDev 
1593313215.8,286046997.3,N
1593313265.7,286047002.3,E
1593313275.6,286047002.8,N
1593313295.4,286047002.3,P
1593313315.3,286047003.6,P
1593313335.1,286047003.5,Y
1593313336.0,286047003.5,P
1593313355.8,286046999.8,N
1593313375.7,286047000.9,N
1593313395.5,286047000.5,N
1593313415.3,286047003.5,N
1593313435.2,286047004.5,N
1593313455.0,286047007.1,Y
1593313455.9,286047007.1,P
1593313475.8,286047003.7,N
1593313495.6,286047005.8,N
1593313515.4,286047008.3,Y
1593313535.3,286047006.8,P
1593313555.1,286047008.7,P
1593313575.9,286047008.3,P
1593313595.7,286047010.3,Y
1593313615.5,286046999.7,P
1593313635.4,286047003.6,N
1593313655.2,286047004.8,N
1593313675.1,286047004.8,N
1593313676.0,286047004.8,N
1593313695.8,286047008.0,Y
1593313715.6,286047007.5,P
1593313735.5,286047005.1,P
1593313755.3,286047005.1,P
1593313775.2,286047004.5,Y
1593313795.9,286047002.8,P
1593313815.7,286047003.2,N
1593313835.6,286047001.8,N
1593313855.4,286047002.6,N
1593313875.2,286047003.4,N
1593313895.1,286047003.6,Y
1593313896.0,286047003.6,P
1593313915.8,286046998.3,P
1593313935.7,286047002.5,N
1593313955.5,286047002.8,N
1593313975.3,286046999.1,N
1593313995.2,286047002.6,N
1593314015.0,286046998.1,N
1593314015.9,286046998.1,N
1593314035.8,286046996.5,N
1593314055.6,286046998.0,N
1593314075.4,286046995.1,N
1593314095.3,286046997.9,N
1593314115.1,286046997.0,N
1593314135.8,286047000.6,N
1593314155.7,286046997.3,N
1593314175.5,286046995.5,N
1593314195.4,286046993.3,N
1593314215.2,286046993.7,N
1593314235.0,286046995.6,N
1593314235.9,286046995.6,N
1593314255.8,286046997.2,N
1593314275.6,286046998.4,N
1593314295.4,286046998.1,N
1593314315.3,286046999.9,N
1593314335.1,286047002.0,N
1593314355.9,286047003.9,N
1593314375.7,286047005.0,N
1593314395.5,286047010.5,Y
1593314415.4,286047009.5,P
1593314435.2,286047012.1,N
1593314455.0,286047015.4,N
1593314456.0,286047015.4,N
1593314475.8,286047018.7,Y
1593314495.6,286047006.3,P
1593314515.5,286047008.5,P
1593314535.3,286047007.9,P
1593314555.1,286047011.9,Y
1593314575.9,286047004.2,P
1593314595.7,286047004.2,N
1593314615.6,286047002.1,N
1593314635.4,286047000.2,N
1593314655.2,286047002.3,N
1593314675.1,286047000.5,N
1593314676.0,286047000.5,N
1593314695.8,286047002.4,N
1593314715.6,286047002.6,N
1593314735.5,286047002.0,N
1593314755.3,286047002.9,N
1593314775.2,286047007.5,Y
1593314795.9,286047005.6,P
1593314815.7,286047002.9,N
1593314835.6,286047004.4,P
1593314855.4,286047002.7,N
1593314875.2,286047000.3,N
1593314895.1,286046997.0,N
1593314896.0,286046997.0,N
1593314915.8,286046995.0,N
1593314935.7,286046992.0,N
1593314955.5,286046987.4,N
1593314975.3,286046988.3,N
1593314995.2,286046986.0,N
1593315015.9,286046986.8,N
1593315035.7,286046984.8,N
1593315055.6,286046982.3,N
1593315075.4,286046983.4,N
1593315095.2,286046982.3,N
1593315115.1,286046984.7,N
1593315116.0,286046984.7,N
1593315135.8,286046984.6,N
1593315155.7,286046985.1,N
1593315175.5,286046980.5,N
1593315195.3,286046979.3,N
1593315215.2,286046977.7,N
1593315235.0,286046979.8,N
1593315235.9,286046979.8,N
1593315255.8,286046980.3,N
1593315275.6,286046977.5,N
1593315295.4,286046974.5,N
1593315315.3,286046974.6,N
1593315335.1,286046976.5,N
1593315355.8,286046977.0,N
1593315375.7,286046973.5,Y
1593315395.5,286046986.8,P
1593315415.4,286046985.2,P
1593315435.2,286046982.0,P
1593315455.0,286046981.7,Y
1593315455.9,286046981.7,P
1593315475.8,286046991.9,P
1593315495.6,286046992.4,N
1593315515.5,286046990.3,N
1593315535.3,286046987.6,N
1593315555.2,286046983.8,Y
1593315575.9,286046994.1,P
1593315595.1,286046988.9,P
1593315615.8,286046993.2,N
1593315635.7,286046990.5,Y
1593315655.5,286047002.4,P
1593315675.4,286046999.9,N
1593315695.2,286047000.9,N
1593315715.0,286047000.5,N
1593315715.9,286047000.5,N
1593315735.8,286046997.0,N
1593315755.6,286047002.1,N
1593315775.5,286047008.6,N
1593315795.3,286047014.3,Y
1593315815.1,286047019.1,P
1593315835.9,286047023.0,N
1593315855.7,286047024.4,N
1593315875.6,286047024.7,N
1593315895.4,286047023.7,N
1593315915.2,286047027.9,Y
1593315935.1,286047007.9,P
1593315936.0,286047007.9,N
1593315955.8,286047008.0,N
1593315975.7,286047009.6,N
1593315995.5,286047013.5,Y
1593316015.3,286047004.3,P
1593316035.2,286047003.6,N
1593316055.9,286047006.4,N
1593316075.7,286047012.2,Y
1593316095.6,286047004.9,P
1593316115.4,286047003.4,P
1593316135.3,286047006.6,P
1593316155.1,286047006.5,Y
1593316156.0,286047006.5,P
1593316175.8,286047002.8,P
1593316195.7,286047002.3,N
1593316215.5,286047000.6,N
1593316235.3,286046999.5,N
1593316255.2,286046999.4,N
1593316275.0,286047002.4,N
1593316275.9,286047002.4,N
1593316295.8,286047001.7,N
1593316315.6,286047011.9,Y
1593316335.4,286047008.8,P
1593316355.3,286047008.0,N
1593316375.1,286047008.0,N
1593316395.9,286047009.7,Y
1593316415.7,286047006.2,P
1593316435.5,286047011.1,P
1593316455.4,286047013.8,P
1593316475.2,286047015.1,Y
1593316495.0,286047006.1,P
1593316495.9,286047006.1,P
1593316515.8,286047010.7,P
1593316535.6,286047008.5,Y
1593316555.5,286046998.4,P
1593316575.3,286046998.5,N
1593316595.1,286047000.4,N
1593316615.9,286047003.7,N
1593316635.7,286047007.4,N
1593316655.6,286047012.1,Y
1593316675.4,286047011.1,P
1593316695.2,286047014.0,P
1593316715.1,286047013.1,N
1593316716.0,286047013.1,N
1593316735.8,286047012.5,Y
1593316755.6,286047005.7,P
1593316775.5,286047005.1,N
1593316795.3,286047003.0,N
